This is the latest recevied weather packets stored in our database for station/object WD9GET. If no packets are shown the sender has not sent any weather packets the latest 10 day(s).
| Time | Temp. | Humidity | Pressure | Rain* | Wind** | Luminosity | Snow |
|---|---|---|---|---|---|---|---|
| 1777585932 | 28.89° C | 78% | 1006.9 hPa | 0 mm | - | 35 W/m² | - |
| 1777585877 | 29.44° C | 77% | 1007 hPa | 0 mm | - | 43 W/m² | - |
| 1777585812 | 29.44° C | 76% | 1006.9 hPa | 0 mm | - | 58 W/m² | - |
| 1777585747 | 30° C | 75% | 1007.1 hPa | 0 mm | - | 77 W/m² | - |
| 1777585680 | 30° C | 74% | 1007.2 hPa | 0 mm | - | 106 W/m² | - |
| 1777585618 | 30° C | 74% | 1007.2 hPa | 0 mm | - | 151 W/m² | - |
| 1777585558 | 30° C | 74% | 1007.3 hPa | 0 mm | - | 209 W/m² | - |
| 1777585498 | 30° C | 74% | 1007.1 hPa | 0 mm | - | 334 W/m² | - |
| 1777585438 | 30° C | 74% | 1007 hPa | 0 mm | - | 587 W/m² | - |
| 1777585378 | 30° C | 74% | 1006.8 hPa | 0 mm | - | 579 W/m² | - |
| 1777585318 | 30° C | 74% | 1006.8 hPa | 0 mm | - | 627 W/m² | - |
| 1777585258 | 30° C | 74% | 1006.7 hPa | 0 mm | - | 616 W/m² | - |
| 1777585198 | 30° C | 74% | 1006.7 hPa | 0 mm | - | 402 W/m² | - |
| 1777585138 | 30° C | 74% | 1006.8 hPa | 0 mm | - | 426 W/m² | - |
| 1777585078 | 30° C | 74% | 1006.8 hPa | 0 mm | - | 426 W/m² | - |
| 1777585018 | 29.44° C | 74% | 1006.9 hPa | 0 mm | - | 476 W/m² | - |
| 1777584958 | 30° C | 74% | 1007 hPa | 0 mm | - | 368 W/m² | - |
| 1777584899 | 30° C | 74% | 1007 hPa | 0 mm | - | 368 W/m² | - |
| 1777584838 | 30° C | 74% | 1007.1 hPa | 0 mm | - | 335 W/m² | - |
| 1777584833 | 30° C | 74% | 1007.1 hPa | 0 mm | - | 240 W/m² | - |
| 1777584712 | 30° C | 74% | 1007.1 hPa | 0 mm | - | 240 W/m² | - |
| 1777584653 | 30° C | 75% | 1007.2 hPa | 0 mm | - | 226 W/m² | - |
| 1777584593 | 30° C | 75% | 1007.2 hPa | 0 mm | - | 217 W/m² | - |
| 1777584527 | 30° C | 74% | 1007.2 hPa | 0 mm | - | 192 W/m² | - |
| 1777584470 | 30° C | 74% | 1007.2 hPa | 0 mm | - | 192 W/m² | - |
* Rain latest hour (hover to see other rain measurements)
** Current wind speed in m/s (hover to see current wind gust speed)